Location: Unspecified
(0.0000°N, 0.0000°E)
Time: 02:30:25
(UTC+00:00)

Explorer 7 - Pass Details

Date: 30 October 2021
Orbit: 483 x 675 km, 50.3° (Epoch: 27 November)

Event Time Altitude Azimuth Distance (km) Brightness Sun altitude
Exits shadow 04:06:55 60° 232° (SW) 768 7.2 -23.4°
Drops below altitude 10° 04:11:42 10° 153° (SSE) 2,100 10.3 -22.3°
Sets 04:14:05 0° 150° (SSE) 3,007 11.3 -21.7°
